• en Suisse
  • Liste des pays
  • À 7 jours
  • Température de l'eau
  • Carte satellitaire
  • Carte météo
  • Widgets météo
  • user-avatar
    Se connecter

    Météo par heure à Isfahan

    Ce jour, 18 Octobre, Jeudi

    Heure Température Précipitation Vent Pression Humidité
    00:00 +17°C° 0 mm 2 m/s 634 mmHg 40%
    01:00 +18°C° 0 mm 1 m/s 634 mmHg 41%
    02:00 +16°C° 0 mm 1 m/s 633 mmHg 42%
    03:00 +16°C° 0 mm 1 m/s 633 mmHg 43%
    04:00 +16°C° 0 mm 1 m/s 633 mmHg 44%
    05:00 +15°C° 0 mm 1 m/s 633 mmHg 45%
    06:00 +14°C° 0 mm 0 m/s 633 mmHg 46%
    07:00 +16°C° 0 mm 1 m/s 634 mmHg 43%
    08:00 +18°C° 0 mm 1 m/s 634 mmHg 40%
    09:00 +19°C° 0 mm 1 m/s 634 mmHg 37%
    10:00 +20°C° 0 mm 1 m/s 634 mmHg 34%
    11:00 +21°C° 0 mm 1 m/s 634 mmHg 32%
    12:00 +22°C° 0 mm 1 m/s 634 mmHg 30%
    13:00 +22°C° 0 mm 1 m/s 634 mmHg 29%
    14:00 +23°C° 0 mm 2 m/s 634 mmHg 28%
    15:00 +23°C° 0 mm 2 m/s 634 mmHg 27%
    16:00 +23°C° 0 mm 2 m/s 634 mmHg 28%
    17:00 +21°C° 0 mm 3 m/s 634 mmHg 29%
    18:00 +21°C° 0 mm 3 m/s 634 mmHg 31%
    19:00 +20°C° 0 mm 3 m/s 634 mmHg 33%
    20:00 +19°C° 0 mm 3 m/s 634 mmHg 35%
    21:00 +19°C° 0 mm 2 m/s 634 mmHg 37%
    22:00 +18°C° 0 mm 2 m/s 634 mmHg 38%
    23:00 +18°C° 0 mm 2 m/s 634 mmHg 40%

    Demain, 19 Octobre, Vendredi

    Heure Température Précipitation Vent Pression Humidité
    00:00 +17°C° 0 mm 2 m/s 634 mmHg 41%
    01:00 +18°C° 0 mm 1 m/s 633 mmHg 42%
    02:00 +16°C° 0 mm 1 m/s 633 mmHg 43%
    03:00 +16°C° 0 mm 1 m/s 633 mmHg 44%
    04:00 +16°C° 0 mm 1 m/s 633 mmHg 45%
    05:00 +15°C° 0 mm 1 m/s 633 mmHg 46%
    06:00 +15°C° 0 mm 1 m/s 633 mmHg 46%
    07:00 +16°C° 0 mm 1 m/s 634 mmHg 43%
    08:00 +18°C° 0 mm 1 m/s 634 mmHg 39%
    09:00 +19°C° 0 mm 1 m/s 635 mmHg 36%
    10:00 +20°C° 0 mm 1 m/s 635 mmHg 34%
    11:00 +21°C° 0 mm 1 m/s 635 mmHg 31%
    12:00 +22°C° 0 mm 1 m/s 635 mmHg 29%
    13:00 +22°C° 0 mm 1 m/s 635 mmHg 28%
    14:00 +23°C° 0 mm 2 m/s 634 mmHg 27%
    15:00 +23°C° 0 mm 2 m/s 634 mmHg 26%
    16:00 +23°C° 0.1 mm 2 m/s 634 mmHg 27%
    17:00 +21°C° 0.1 mm 2 m/s 634 mmHg 28%
    18:00 +21°C° 0.1 mm 2 m/s 634 mmHg 30%
    19:00 +20°C° 0 mm 2 m/s 635 mmHg 31%
    20:00 +20°C° 0 mm 2 m/s 635 mmHg 32%
    21:00 +19°C° 0 mm 2 m/s 635 mmHg 34%
    22:00 +19°C° 0 mm 2 m/s 635 mmHg 35%
    23:00 +19°C° 0 mm 1 m/s 634 mmHg 36%

    Après-demain, 20 Octobre, Samedi

    Heure Température Précipitation Vent Pression Humidité
    00:00 +19°C° 0 mm 1 m/s 634 mmHg 38%
    01:00 +18°C° 0 mm 1 m/s 634 mmHg 39%
    02:00 +18°C° 0 mm 1 m/s 634 mmHg 40%
    03:00 +16°C° 0 mm 1 m/s 634 mmHg 41%
    04:00 +15°C° 0 mm 0 m/s 634 mmHg 41%
    05:00 +15°C° 0 mm 0 m/s 634 mmHg 42%
    06:00 +14°C° 0 mm 0 m/s 633 mmHg 43%
    07:00 +16°C° 0 mm 0 m/s 634 mmHg 39%
    08:00 +17°C° 0 mm 0 m/s 635 mmHg 36%
    09:00 +20°C° 0 mm 1 m/s 635 mmHg 32%
    10:00 +21°C° 0 mm 1 m/s 635 mmHg 30%
    11:00 +22°C° 0 mm 1 m/s 635 mmHg 28%
    12:00 +23°C° 0 mm 1 m/s 635 mmHg 26%
    13:00 +24°C° 0 mm 1 m/s 635 mmHg 25%
    14:00 +24°C° 0 mm 1 m/s 634 mmHg 24%
    15:00 +24°C° 0 mm 1 m/s 634 mmHg 23%
    16:00 +24°C° 0 mm 1 m/s 634 mmHg 24%
    17:00 +23°C° 0 mm 1 m/s 634 mmHg 25%
    18:00 +23°C° 0 mm 1 m/s 635 mmHg 26%
    19:00 +21°C° 0 mm 2 m/s 635 mmHg 27%
    20:00 +21°C° 0 mm 2 m/s 635 mmHg 29%
    21:00 +20°C° 0 mm 2 m/s 635 mmHg 30%
    22:00 +20°C° 0 mm 2 m/s 634 mmHg 31%
    23:00 +20°C° 0 mm 1 m/s 634 mmHg 32%

    21 Octobre, Dimanche

    Heure Température Précipitation Vent Pression Humidité
    00:00 +20°C° 0 mm 1 m/s 634 mmHg 33%
    01:00 +20°C° 0 mm 1 m/s 634 mmHg 34%
    02:00 +19°C° 0 mm 1 m/s 634 mmHg 34%
    03:00 +19°C° 0 mm 1 m/s 633 mmHg 35%
    04:00 +18°C° 0 mm 1 m/s 633 mmHg 36%
    05:00 +16°C° 0 mm 0 m/s 633 mmHg 38%
    06:00 +15°C° 0 mm 0 m/s 633 mmHg 39%
    07:00 +17°C° 0 mm 0 m/s 634 mmHg 35%
    08:00 +20°C° 0 mm 1 m/s 634 mmHg 32%
    09:00 +21°C° 0 mm 1 m/s 635 mmHg 29%
    10:00 +22°C° 0 mm 1 m/s 635 mmHg 28%
    11:00 +23°C° 0 mm 1 m/s 635 mmHg 26%
    12:00 +24°C° 0 mm 1 m/s 635 mmHg 24%
    13:00 +24°C° 0 mm 1 m/s 634 mmHg 23%
    14:00 +25°C° 0 mm 1 m/s 634 mmHg 22%
    15:00 +25°C° 0 mm 1 m/s 634 mmHg 22%
    16:00 +25°C° 0 mm 1 m/s 634 mmHg 23%
    17:00 +24°C° 0 mm 2 m/s 634 mmHg 24%
    18:00 +23°C° 0 mm 2 m/s 634 mmHg 25%
    19:00 +23°C° 0 mm 2 m/s 634 mmHg 26%
    20:00 +22°C° 0 mm 1 m/s 634 mmHg 28%
    21:00 +22°C° 0 mm 1 m/s 634 mmHg 29%
    22:00 +21°C° 0 mm 1 m/s 634 mmHg 31%
    23:00 +21°C° 0 mm 1 m/s 634 mmHg 32%

    22 Octobre, Lundi

    Heure Température Précipitation Vent Pression Humidité
    00:00 +20°C° 0 mm 1 m/s 633 mmHg 33%
    01:00 +20°C° 0 mm 1 m/s 633 mmHg 34%
    02:00 +20°C° 0 mm 1 m/s 633 mmHg 34%
    03:00 +20°C° 0 mm 1 m/s 633 mmHg 34%
    04:00 +20°C° 0 mm 1 m/s 633 mmHg 35%
    05:00 +18°C° 0 mm 2 m/s 634 mmHg 36%
    06:00 +18°C° 0 mm 2 m/s 634 mmHg 38%
    07:00 +19°C° 0 mm 2 m/s 634 mmHg 36%
    08:00 +20°C° 0 mm 2 m/s 634 mmHg 34%
    09:00 +21°C° 0 mm 2 m/s 635 mmHg 33%
    10:00 +23°C° 0 mm 2 m/s 635 mmHg 30%
    11:00 +24°C° 0 mm 3 m/s 634 mmHg 27%
    12:00 +25°C° 0 mm 3 m/s 634 mmHg 25%
    13:00 +25°C° 0 mm 3 m/s 634 mmHg 23%
    14:00 +26°C° 0 mm 3 m/s 634 mmHg 22%
    15:00 +26°C° 0 mm 3 m/s 634 mmHg 21%
    16:00 +26°C° 0 mm 3 m/s 634 mmHg 22%
    17:00 +25°C° 0 mm 3 m/s 634 mmHg 23%
    18:00 +25°C° 0 mm 3 m/s 635 mmHg 24%
    19:00 +24°C° 0 mm 2 m/s 635 mmHg 26%
    20:00 +23°C° 0 mm 2 m/s 635 mmHg 28%
    21:00 +22°C° 0 mm 1 m/s 635 mmHg 30%
    22:00 +22°C° 0 mm 1 m/s 634 mmHg 31%
    23:00 +21°C° 0 mm 1 m/s 634 mmHg 32%

    23 Octobre, Mardi

    Heure Température Précipitation Vent Pression Humidité
    00:00 +20°C° 0 mm 1 m/s 634 mmHg 34%
    01:00 +20°C° 0 mm 1 m/s 634 mmHg 35%
    02:00 +18°C° 0 mm 2 m/s 634 mmHg 36%
    03:00 +18°C° 0 mm 2 m/s 634 mmHg 37%
    04:00 +19°C° 0 mm 1 m/s 634 mmHg 38%
    05:00 +18°C° 0 mm 1 m/s 634 mmHg 39%
    06:00 +18°C° 0 mm 1 m/s 634 mmHg 40%
    07:00 +19°C° 0 mm 1 m/s 635 mmHg 36%
    08:00 +20°C° 0 mm 1 m/s 635 mmHg 32%
    09:00 +21°C° 0 mm 2 m/s 636 mmHg 29%
    10:00 +23°C° 0 mm 1 m/s 635 mmHg 26%
    11:00 +24°C° 0 mm 1 m/s 635 mmHg 23%
    12:00 +24°C° 0 mm 1 m/s 635 mmHg 20%
    13:00 +25°C° 0 mm 1 m/s 635 mmHg 19%
    14:00 +25°C° 0 mm 1 m/s 635 mmHg 17%
    15:00 +26°C° 0 mm 1 m/s 635 mmHg 16%
    16:00 +25°C° 0 mm 1 m/s 635 mmHg 17%
    17:00 +24°C° 0 mm 1 m/s 635 mmHg 18%
    18:00 +23°C° 0 mm 2 m/s 635 mmHg 18%
    19:00 +23°C° 0 mm 1 m/s 635 mmHg 20%
    20:00 +22°C° 0 mm 1 m/s 635 mmHg 21%
    21:00 +21°C° 0 mm 1 m/s 635 mmHg 22%
    22:00 +21°C° 0 mm 1 m/s 634 mmHg 23%
    23:00 +18°C° 0 mm 0 m/s 634 mmHg 23%
    Voir plus